全球卫星定位系统 GPS 73星 (NAVSTAR 73 (USA 260))

导读

NAVSTAR 73(USA 260)是美国于2015年3月25日发射的GPS导航卫星,NAVSTAR是全球定位系统GPS的官方命名,这类卫星是美国全球导航系统的核心组成部分。该卫星运行在中地球轨道,为全球用户提供精准的定位、导航与授时服务,支撑民生应用与军事行动,目前仍承担着GPS星座的组网服务,保障全球任意位置都能获取稳定可靠的位置信息,是美国空天导航体系的重要节点。

Basic Information
目录编号:
40534
目录名称:
NAVSTAR 73 (USA 260)
国际标识:
2015-013A
轨道中心:
EARTH
卫星名称:
GPS 73星
卫星全名:
全球卫星定位系统 GPS 73星 (NAVSTAR 73 (USA 260))
卫星状态:
在轨 (已飞行4109 天)
发射日期:
2015-03-25 UTC
国别 :
美国 (US)
星等 :
--
Orbit Information
数据来源 国际轨道数据 AOE轨道数据
星历时间 2026-06-23T21:03:49+0800
22小时前
查看轨道信息
2026-06-20T09:00:00+0800
4天前
查看轨道信息
半长轴 26561.461km 26561.399km
偏心率 0.0109692 0.0109757
轨道倾角 53.168° 53.168°
近地点辐角 40.185° 40.139°
升交点赤经 203.915° 204.059°
平近点角 320.683° 311.777°
近地点 19891.966km 19891.732km
远地点 20474.682km 20474.792km
周期 718.022分钟 718.019分钟
每日圈数 2.00551 2.005517
Detailed Information
平衡模式:
三轴稳定
覆盖范围:
全球
运营商:
美国太空军
运营商所在国:
美国
制造商(研发单位):
波音公司
制造商所在国:
美国
使用方式:
暂无
工作目标:
提供军用及民用全球定位与导航服务。
预期寿命:
12年
Satellite Introduction
全球定位系统(英语:Global Positioning System,通常简称GPS),又称全球卫星定位系统,是美国国防部研制,美国太空军运营与维护的中地球轨道卫星导航系统。它可以为地球表面约98%的地区提供准确的定位、测速和高精度的标准时间。全球定位系统可满足位于全球地面任何一处或近地空间的军事用户连续且精确地确定三维位置、三维运动和时间的需求。该系统包括太空中的31颗GPS人造卫星.该卫星仍在工作。
2D Orbit Map
3D Orbit Map
Orbit Altitude Analysis Chart
Orbit Inclination Analysis Chart
Orbit Comprehensive Analysis Chart
View Comprehensive Chart